Location: Byhalia Creek
(34.8270°N, 89.8040°W)
Time: 18:48:41
(UTC+00:00)

Okean 3 Rocket - Pass Details

Date: 22 April 2026
Orbit: 609 x 637 km, 82.5° (Epoch: 9 May)

Event Time Altitude Azimuth Distance (km) Brightness Sun altitude
Rises 10:29:57 0° 341° (NNW) 2,912 7.1 -10.3°
Reaches altitude 10° 10:32:21 10° 331° (NNW) 2,006 6.1 -9.8°
Maximum altitude 10:36:16 31° 270° (W) 1,097 4.3 -9.1°
Drops below altitude 10° 10:40:13 10° 207° (SSW) 2,008 5.7 -8.3°
Sets 10:42:38 0° 197° (SSW) 2,914 6.6 -7.9°
